Weather History for Bentonville, AR

Change the Weather History Date:

Sunday, November 13, 2011

  Actual Average Record
Temperature  
Mean Temperature 68 °F -  
Max Temperature 73 °F 57 °F 82 °F (1955)
Min Temperature 62 °F 34 °F 8 °F (1986)
Cooling Degree Days 2    
Growing Degree Days 18 (Base 50)    
Moisture  
Dew Point 52 °F    
Average Humidity 60    
Maximum Humidity 72    
Minimum Humidity 41    
Precipitation  
Precipitation 0.00 in - - ()
Sea Level Pressure  
Sea Level Pressure 29.66 in    
Wind  
Wind Speed 16 mph (SSW)    
Max Wind Speed 22 mph    
Max Gust Speed 33 mph    
Visibility 10 miles    
Events      
Averages and records for this station are not official NWS values.
T = Trace of Precipitation, MM = Missing Value Source: NWS Daily Summary

Daily Weather History Graph

Daily Weather History Graph

Search for Another Location

Airport:

Trip Planner

Search our weather history database for the weather conditions in past years. The results will help you decide how hot, cold, wet, or windy it might be!

Date:

Astronomy

Nov. 13, 2011 Rise Set
Actual Time 6:51 AM CST 5:10 PM CST
Civil Twilight 6:24 AM CST 5:37 PM CST
Nautical Twilight 5:53 AM CST 6:08 PM CST
Astronomical Twilight 5:23 AM CST 6:38 PM CST
Moon 7:22 PM CST (11/13) 9:22 AM CST (11/13)
Length of Visible Light 11h 12m
Length of Day
10h 18m
Waning Gibbous, 92% of the Moon is Illuminated
Nov 13
Waning Gibbous
Nov 18
Last Quarter
Nov 25
New
Dec 2
First Quarter
Dec 10
Full

Hourly Weather History & Observations

Time (CST) Temp. Dew Point Humidity Pressure Visibility Wind Dir Wind Speed Gust Speed Precip Events Conditions
12:15 AM 62.6 °F 51.8 °F 68% 29.68 in 10.0 mi SSW 20.7 mph 29.9 mph N/A   Clear
12:35 AM 62.6 °F 51.8 °F 68% 29.67 in 10.0 mi SSW 15.0 mph 27.6 mph N/A   Clear
12:55 AM 62.6 °F 51.8 °F 68% 29.67 in 10.0 mi SSW 20.7 mph 29.9 mph N/A   Clear
1:15 AM 62.6 °F 51.8 °F 68% 29.66 in 10.0 mi SSW 13.8 mph 29.9 mph N/A   Clear
1:35 AM 62.6 °F 51.8 °F 68% 29.65 in 10.0 mi SSW 18.4 mph 33.4 mph N/A   Clear
2:15 AM 62.6 °F 53.6 °F 72% 29.65 in 10.0 mi SSW 15.0 mph 27.6 mph N/A   Clear
2:35 AM 62.6 °F 53.6 °F 72% 29.66 in 10.0 mi SSW 21.9 mph 29.9 mph N/A   Clear
2:55 AM 62.6 °F 53.6 °F 72% 29.66 in 10.0 mi SSW 19.6 mph 27.6 mph N/A   Clear
3:15 AM 62.6 °F 53.6 °F 72% 29.66 in 10.0 mi SSW 20.7 mph 31.1 mph N/A   Clear
3:35 AM 62.6 °F 53.6 °F 72% 29.66 in 10.0 mi SSW 15.0 mph 28.8 mph N/A   Clear
3:55 AM 62.6 °F 53.6 °F 72% 29.65 in 10.0 mi SSW 17.3 mph 24.2 mph N/A   Clear
4:15 AM 62.6 °F 53.6 °F 72% 29.65 in 10.0 mi SSW 15.0 mph 26.5 mph N/A   Clear
4:35 AM 62.6 °F 53.6 °F 72% 29.65 in 10.0 mi SSW 17.3 mph 24.2 mph N/A   Clear
4:55 AM 62.6 °F 53.6 °F 72% 29.65 in 10.0 mi SSW 16.1 mph 25.3 mph N/A   Clear
5:35 AM 62.6 °F 51.8 °F 68% 29.65 in 10.0 mi SSW 17.3 mph 25.3 mph N/A   Clear
6:15 AM 62.6 °F 53.6 °F 72% 29.66 in 10.0 mi SSW 15.0 mph 25.3 mph N/A   Clear
6:55 AM 62.6 °F 53.6 °F 72% 29.66 in 10.0 mi SSW 16.1 mph 26.5 mph N/A   Clear
7:15 AM 62.6 °F 53.6 °F 72% 29.66 in 10.0 mi SSW 18.4 mph 25.3 mph N/A   Clear
7:35 AM 62.6 °F 53.6 °F 72% 29.66 in 10.0 mi SSW 19.6 mph 27.6 mph N/A   Clear
7:55 AM 62.6 °F 53.6 °F 72% 29.67 in 10.0 mi SSW 16.1 mph 25.3 mph N/A   Clear
8:35 AM 64.4 °F 53.6 °F 68% 29.68 in 10.0 mi SSW 18.4 mph 26.5 mph N/A   Clear
8:55 AM 66.2 °F 53.6 °F 64% 29.68 in 10.0 mi SSW 19.6 mph 27.6 mph N/A   Clear
9:15 AM 66.2 °F 53.6 °F 64% 29.68 in 10.0 mi SSW 21.9 mph 31.1 mph N/A   Clear
9:35 AM 68.0 °F 53.6 °F 60% 29.69 in 10.0 mi SSW 21.9 mph 29.9 mph N/A   Clear
9:55 AM 68.0 °F 51.8 °F 56% 29.68 in 10.0 mi SSW 18.4 mph 28.8 mph N/A   Clear
10:15 AM 68.0 °F 51.8 °F 56% 29.69 in 10.0 mi SSW 19.6 mph 32.2 mph N/A   Clear
10:35 AM 69.8 °F 51.8 °F 53% 29.69 in 10.0 mi SW 21.9 mph 31.1 mph N/A   Clear
10:55 AM 71.6 °F 51.8 °F 50% 29.69 in 10.0 mi SW 16.1 mph 25.3 mph N/A   Clear
11:15 AM 71.6 °F 50.0 °F 46% 29.68 in 10.0 mi SW 20.7 mph 26.5 mph N/A   Clear
11:35 AM 71.6 °F 50.0 °F 46% 29.67 in 10.0 mi SW 19.6 mph 26.5 mph N/A   Clear
11:55 AM 71.6 °F 50.0 °F 46% 29.66 in 10.0 mi SSW 18.4 mph 25.3 mph N/A   Clear
12:15 PM 71.6 °F 50.0 °F 46% 29.65 in 10.0 mi SSW 13.8 mph 21.9 mph N/A   Clear
12:35 PM 71.6 °F 51.8 °F 50% 29.65 in 10.0 mi SW 13.8 mph 27.6 mph N/A   Clear
12:55 PM 71.6 °F 51.8 °F 50% 29.64 in 10.0 mi SW 11.5 mph 17.3 mph N/A   Clear
1:35 PM 73.4 °F 48.2 °F 41% 29.64 in 10.0 mi SW 17.3 mph 27.6 mph N/A   Clear
2:15 PM 73.4 °F 51.8 °F 47% 29.63 in 10.0 mi SSW 17.3 mph 20.7 mph N/A   Clear
2:35 PM 73.4 °F 51.8 °F 47% 29.64 in 10.0 mi SSW 13.8 mph 21.9 mph N/A   Clear
2:55 PM 71.6 °F 50.0 °F 46% 29.64 in 10.0 mi SSW 12.7 mph 23.0 mph N/A   Clear
3:15 PM 73.4 °F 51.8 °F 47% 29.64 in 10.0 mi SW 16.1 mph 25.3 mph N/A   Clear
3:35 PM 71.6 °F 50.0 °F 46% 29.65 in 10.0 mi SSW 15.0 mph 25.3 mph N/A   Clear
3:55 PM 71.6 °F 51.8 °F 50% 29.65 in 10.0 mi SSW 12.7 mph 19.6 mph N/A   Clear
4:15 PM 69.8 °F 51.8 °F 53% 29.64 in 10.0 mi SSW 8.1 mph - N/A   Clear
4:35 PM 69.8 °F 51.8 °F 53% 29.64 in 10.0 mi SW 5.8 mph - N/A   Clear
4:55 PM 68.0 °F 51.8 °F 56% 29.64 in 10.0 mi SSW 3.5 mph - N/A   Clear
5:15 PM 66.2 °F 51.8 °F 60% 29.64 in 10.0 mi Calm Calm - N/A   Clear
5:35 PM 64.4 °F 51.8 °F 64% 29.65 in 10.0 mi Calm Calm - N/A   Clear
5:55 PM 62.6 °F 51.8 °F 68% 29.66 in 10.0 mi Calm Calm - N/A   Clear
6:15 PM 66.2 °F 51.8 °F 60% 29.67 in 10.0 mi SW 8.1 mph - N/A   Clear
6:35 PM 69.8 °F 50.0 °F 49% 29.67 in 10.0 mi SSW 9.2 mph - N/A   Clear
6:55 PM 69.8 °F 50.0 °F 49% 29.67 in 10.0 mi SSW 8.1 mph - N/A   Clear
7:15 PM 69.8 °F 51.8 °F 53% 29.67 in 10.0 mi SSW 8.1 mph - N/A   Clear
7:35 PM 69.8 °F 51.8 °F 53% 29.68 in 10.0 mi SSW 9.2 mph - N/A   Clear
7:55 PM 69.8 °F 51.8 °F 53% 29.68 in 10.0 mi SSW 11.5 mph 16.1 mph N/A   Clear
8:15 PM 69.8 °F 53.6 °F 56% 29.69 in 10.0 mi SSW 9.2 mph - N/A   Clear
8:35 PM 69.8 °F 53.6 °F 56% 29.68 in 10.0 mi South 9.2 mph 16.1 mph N/A   Clear
8:55 PM 69.8 °F 53.6 °F 56% 29.68 in 10.0 mi South 8.1 mph - N/A   Clear
9:15 PM 69.8 °F 53.6 °F 56% 29.69 in 10.0 mi SSW 11.5 mph 16.1 mph N/A   Clear
9:35 PM 69.8 °F 53.6 °F 56% 29.68 in 10.0 mi South 12.7 mph 18.4 mph N/A   Clear
9:55 PM 69.8 °F 53.6 °F 56% 29.67 in 10.0 mi South 13.8 mph 19.6 mph N/A   Clear
10:15 PM 69.8 °F 53.6 °F 56% 29.68 in 10.0 mi SSW 13.8 mph 20.7 mph N/A   Clear
10:35 PM 69.8 °F 53.6 °F 56% 29.67 in 10.0 mi SSW 13.8 mph 24.2 mph N/A   Clear
10:55 PM 69.8 °F 53.6 °F 56% 29.66 in 10.0 mi SSW 13.8 mph 24.2 mph N/A   Clear
11:15 PM 69.8 °F 53.6 °F 56% 29.66 in 10.0 mi SSW 18.4 mph 23.0 mph N/A   Clear
11:35 PM 69.8 °F 53.6 °F 56% 29.66 in 10.0 mi SSW 15.0 mph 23.0 mph N/A   Clear
11:55 PM 69.8 °F 53.6 °F 56% 29.66 in 10.0 mi SSW 15.0 mph 20.7 mph N/A   Clear